Preview of NWS' New Version of Forecast
This preview is not operational and should not be used for support decisions.

Regional Weather Roundup (RWR)

Issued by Gray - Portland, ME (GYX)

                            
000
ASUS41 KGYX 211410
RWRGYX
WEATHER ROUNDUP FOR MAINE AND NEW HAMPSHIRE
NATIONAL WEATHER SERVICE GRAY ME
1000 AM EDT MON MAY 21 2018

MEZ002-005-006-010-012-015-018-020-021-024-026-027-029-211500-
MAINE
  
CITY           SKY/WX    TMP DP  RH WIND       PRES   REMARKS
PORTLAND       FAIR      68  40  35 W8        30.13F                  
SANFORD        FAIR      68  38  33 VRB6      30.15S                  
BAR HARBOR     FAIR      65  37  35 SW8       30.06F                  
WISCASSET      FAIR      65  41  41 VRB5      30.12F                  
ROCKLAND       FAIR      65  42  43 W14       30.09F                  
FRYEBURG       FAIR      68  33  27 NW7       30.13F                  
LEWISTONAUBURN FAIR      66  38  35 W6        30.12F                  
AUGUSTA        FAIR      65  37  35 W7        30.10F                  
WATERVILLE     FAIR      66  41  40 SW8       30.06F                  
BANGOR         FAIR      66  39  37 VRB6      30.06F                  
GREENVILLE       N/A     62  35  36 NW14G23   30.01F                  
MILLINOCKET    FAIR      65  35  33 NW8       30.02F                  
HOULTON        FAIR      65  34  31 W15G26    29.95F                  
PRESQUE ISLE   FAIR      63  30  28 W25       29.93F                  
FRENCHVILLE    FAIR      63  30  28 W20G32    29.91R                  
CARIBOU        FAIR      63  29  27 NW17G31   29.91F                  
$$

NHZ002-005-008-009-011-012-014-211500-
NEW HAMPSHIRE
  
CITY           SKY/WX    TMP DP  RH WIND       PRES   REMARKS
ROCHESTER      FAIR      68  41  37 NW7       30.14S                  
NASHUA         FAIR      66  38  35 N10G16    30.17F                  
MANCHESTER     FAIR      69  36  29 N9        30.15S                  
CONCORD        FAIR      65  42  43 W8        30.17S                  
LACONIA        FAIR      65  40  39 W7        30.16S                  
PLYMOUTH       FAIR      64  38  38 W8        30.15F                  
BERLIN         FAIR      65  37  35 NW7       30.13F                  
WHITEFIELD     FAIR      61  40  45 VRB5      30.15F                  
JAFFREY        FAIR      63  39  41 CALM      30.19S                  
KEENE          FAIR      68  47  46 VRB5      30.19F                  
LEBANON        FAIR      61  46  57 CALM      30.18S                  
MT WASHINGTON  MOSUNNY   36  27  69 NW40        N/A                   
$$

VTZ005-007-008-211500-
VERMONT
  
CITY           SKY/WX    TMP DP  RH WIND       PRES   REMARKS
ST JOHNSBURY     N/A     62  41  46 MISG      30.13F                  
MONTPELIER     FAIR      61  43  51 N7        30.20F                  
BURLINGTON     FAIR      64  43  46 S12       30.17F                  
$$

MAZ007-012-024-CTZ003-RIZ002-NYZ038-NYZ072-211500-
SOUTHERN NEW ENGLAND AND NY
  
CITY           SKY/WX    TMP DP  RH WIND       PRES   REMARKS
BOSTON         FAIR      67  48  50 CALM      30.16S                  
WORCESTER      FAIR      64  38  38 VRB5      30.19R                  
NANTUCKET      FAIR      65  48  54 N14       30.16R                  
PROVIDENCE     FAIR      67  47  48 VRB5      30.17S                  
HARTFORD       FAIR      66  46  48 NE9G16    30.20S                  
ALBANY         FAIR      65  44  46 VRB6      30.22S                  
NEW YORK CITY  PTSUNNY   67  48  50 NE9       30.20R                  
$$

ANZ081-ANZ082-ANZ150-NHZ014-MEZ023>029-211500-
COASTAL MARINE OBSERVATIONS
  
STATION/POSITION TIME  TEMP    WIND        PRES    WAVE
                       AIR SEA DIR/SP/G            HT/PER
                 (UTC) (F)     (DEG/KT/KT) (MB)    (FT/S)
MOUNT DESERT ROC 1400   48     240/ 12/ 12 1019.0F
MATINICUS ROCK   1400   52     260/ 11/ 12 1019.1F
ISLE OF SHOALS   1400   60     280/  4/  4 1020.7S
JEFFREYS LEDGE   1336      52                N/A     2/ 8
CASHES LEDGE BUO 1350   55 49              1020.3S   3/ 7
$$

.............KEY..............
   WCI - WIND CHILL
   TC  - TEMPERATURE IN CELSIUS
   VSB - VISIBILITY IN MILES
   HX  - HEAT INDEX
   FAIR- INDICATES FEW OR NO CLOUDS BELOW 12,000 FT, WITH NO 
         SIGNIFICANT WEATHER AND/OR OBSTRUCTIONS TO VISIBILITY.